Bigfork, MN

1:01 AM CDT on July 24, 2017 (GMT -0500)
Bigfork Municipal

Weather History for KFOZ - April, 2013

Change the Weather History Date:

Friday, April 26, 2013

  Actual Average (KGPZ) Record (KGPZ)
Temperature  
Mean Temperature 48 °F -  
Max Temperature 62 °F 61 °F 81 °F (1952)
Min Temperature 35 °F 34 °F 17 °F (1926)
Degree Days  
Heating Degree Days 16    
Moisture  
Dew Point 28 °F    
Average Humidity 51    
Maximum Humidity 75    
Minimum Humidity 26    
Precipitation  
Precipitation 0.00 in - - ()
Sea Level Pressure  
Sea Level Pressure 30.01 in    
Wind  
Wind Speed 5 mph (SSW)    
Max Wind Speed 9 mph    
Max Gust Speed -    
Visibility 10 miles    
Events Rain    
Averages and records for this station are not official NWS values.
T = Trace of Precipitation, MM = Missing Value Source: NWS Daily Summary

Daily Weather History Graph

Daily Weather History Graph

Search for Another Location

Airport or City:

Trip Planner

Search our weather history database for the weather conditions in past years. The results will help you decide how hot, cold, wet, or windy it might be!

Date:

Astronomy

Apr. 26, 2013 Rise Set
Actual Time 6:04 AM CDT 8:20 PM CDT
Civil Twilight 5:31 AM CDT 8:54 PM CDT
Nautical Twilight 4:49 AM CDT 9:37 PM CDT
Astronomical Twilight 4:01 AM CDT 10:25 PM CDT
Moon 9:50 PM CDT (4/26) 6:29 AM CDT (4/26)
Length of Visible Light 15h 23m
Length of Day
14h 15m
Full, 99% of the Moon is Illuminated
Apr 26
Full
May 2
Last Quarter
May 9
New
May 17
First Quarter
May 24
Full

Hourly Weather History & Observations

Time (CDT) Temp. Windchill Dew Point Humidity Pressure Visibility Wind Dir Wind Speed Gust Speed Precip Events Conditions
12:09 AM 37.4 °F 33.8 °F 23.0 °F 56% 30.02 in 10.0 mi SSE 4.6 mph - N/A   Overcast
12:33 AM 39.2 °F 35.0 °F 32.0 °F 75% 30.02 in 10.0 mi SSE 5.8 mph - N/A   Overcast
12:53 AM 39.2 °F 35.9 °F 23.0 °F 52% 30.02 in 10.0 mi SE 4.6 mph - N/A   Mostly Cloudy
1:13 AM 39.2 °F 35.0 °F 23.0 °F 52% 30.00 in 10.0 mi SSE 5.8 mph - N/A   Mostly Cloudy
1:33 AM 39.2 °F 34.2 °F 24.8 °F 56% 29.99 in 10.0 mi South 6.9 mph - N/A   Overcast
1:53 AM 39.2 °F 34.2 °F 24.8 °F 56% 29.98 in 10.0 mi SSE 6.9 mph - N/A   Overcast
2:13 AM 39.2 °F 35.0 °F 32.0 °F 75% 29.97 in 10.0 mi SSE 5.8 mph - N/A   Scattered Clouds
2:33 AM 39.2 °F 33.6 °F 26.6 °F 61% 29.97 in 10.0 mi SSE 8.1 mph - N/A   Mostly Cloudy
2:53 AM 39.2 °F 33.6 °F 26.6 °F 61% 29.95 in 10.0 mi South 8.1 mph - N/A Rain Light Rain
3:13 AM 39.2 °F 34.2 °F 26.6 °F 61% 29.94 in 10.0 mi SSE 6.9 mph - N/A   Mostly Cloudy
3:33 AM 39.2 °F 33.6 °F 26.6 °F 61% 29.94 in 10.0 mi SSE 8.1 mph - N/A   Scattered Clouds
3:53 AM 39.2 °F 34.2 °F 26.6 °F 61% 29.94 in 10.0 mi SSE 6.9 mph - N/A   Clear
4:13 AM 37.4 °F 32.1 °F 26.6 °F 65% 29.93 in 10.0 mi SSE 6.9 mph - N/A   Clear
4:33 AM 37.4 °F 32.8 °F 26.6 °F 65% 29.93 in 10.0 mi SSE 5.8 mph - N/A   Clear
4:53 AM 37.4 °F 32.1 °F 26.6 °F 65% 29.93 in 10.0 mi South 6.9 mph - N/A   Clear
5:13 AM 39.2 °F 37.0 °F 26.6 °F 61% 29.93 in 10.0 mi SSE 3.5 mph - N/A   Clear
5:33 AM 37.4 °F 32.8 °F 26.6 °F 65% 29.93 in 10.0 mi SSE 5.8 mph - N/A   Clear
5:53 AM 37.4 °F 34.9 °F 26.6 °F 65% 29.93 in 10.0 mi SSE 3.5 mph - N/A   Clear
6:13 AM 37.4 °F 33.8 °F 26.6 °F 65% 29.93 in 10.0 mi SSE 4.6 mph - N/A   Clear
6:53 AM 37.4 °F 34.9 °F 26.6 °F 65% 29.94 in 10.0 mi SSE 3.5 mph - N/A   Clear
7:13 AM 37.4 °F 34.9 °F 26.6 °F 65% 29.95 in 10.0 mi South 3.5 mph - N/A   Clear
7:33 AM 37.4 °F 32.1 °F 28.4 °F 70% 29.96 in 10.0 mi South 6.9 mph - N/A   Clear
7:53 AM 39.2 °F 34.2 °F 28.4 °F 65% 29.96 in 10.0 mi South 6.9 mph - N/A   Clear
8:13 AM 39.2 °F 34.2 °F 28.4 °F 65% 29.97 in 10.0 mi SSE 6.9 mph - N/A   Clear
8:33 AM 39.2 °F 34.2 °F 30.2 °F 70% 29.97 in 10.0 mi South 6.9 mph - N/A   Clear
8:53 AM 41.0 °F 36.4 °F 30.2 °F 65% 29.97 in 10.0 mi South 6.9 mph - N/A   Clear
9:13 AM 42.8 °F 38.6 °F 30.2 °F 61% 29.97 in 10.0 mi South 6.9 mph - N/A   Clear
9:33 AM 44.6 °F 40.2 °F 30.2 °F 57% 29.98 in 10.0 mi SSW 8.1 mph - N/A   Clear
9:53 AM 44.6 °F 39.7 °F 30.2 °F 57% 29.98 in 10.0 mi SSW 9.2 mph - N/A   Clear
10:13 AM 46.4 °F 42.4 °F 32.0 °F 57% 29.98 in 10.0 mi SW 8.1 mph - N/A   Clear
10:33 AM 46.4 °F 43.5 °F 32.0 °F 57% 29.98 in 10.0 mi SSW 5.8 mph - N/A   Clear
10:53 AM 48.2 °F - 32.0 °F 54% 29.98 in 10.0 mi SW 4.6 mph - N/A   Clear
11:13 AM 51.8 °F - 32.0 °F 47% 29.99 in 10.0 mi SW 4.6 mph - N/A   Clear
11:33 AM 51.8 °F - 32.0 °F 47% 29.99 in 10.0 mi Calm Calm - N/A   Clear
11:53 AM 51.8 °F - 32.0 °F 47% 30.00 in 10.0 mi WSW 6.9 mph - N/A   Clear
12:13 PM 53.6 °F - 32.0 °F 44% 30.00 in 10.0 mi WSW 4.6 mph - N/A   Clear
12:33 PM 55.4 °F - 32.0 °F 41% 30.00 in 10.0 mi SW 3.5 mph - N/A   Clear
12:53 PM 55.4 °F - 33.8 °F 44% 30.00 in 10.0 mi WSW 6.9 mph - N/A   Clear
1:13 PM 55.4 °F - 33.8 °F 44% 29.99 in 10.0 mi SSW 3.5 mph - N/A   Clear
1:33 PM 57.2 °F - 32.0 °F 38% 30.00 in 10.0 mi SSW 5.8 mph - N/A   Clear
1:53 PM 55.4 °F - 32.0 °F 41% 30.00 in 10.0 mi SSW 4.6 mph - N/A   Clear
2:13 PM 60.8 °F - 30.2 °F 31% 30.00 in 10.0 mi West 5.8 mph - N/A   Clear
2:34 PM 59.0 °F - 30.2 °F 34% 30.01 in 10.0 mi West 8.1 mph - N/A   Clear
2:53 PM 57.2 °F - 30.2 °F 36% 30.01 in 10.0 mi SW 5.8 mph - N/A   Clear
3:13 PM 59.0 °F - 28.4 °F 31% 30.01 in 10.0 mi WSW 3.5 mph - N/A   Clear
3:33 PM 62.6 °F - 28.4 °F 27% 30.01 in 10.0 mi West 5.8 mph - N/A   Clear
3:53 PM 60.8 °F - 28.4 °F 29% 30.02 in 10.0 mi WSW 6.9 mph - N/A   Clear
4:13 PM 62.6 °F - 26.6 °F 26% 30.02 in 10.0 mi West 5.8 mph - N/A   Clear
4:33 PM 62.6 °F - 26.6 °F 26% 30.02 in 10.0 mi West 5.8 mph - N/A   Clear
4:53 PM 62.6 °F - 26.6 °F 26% 30.03 in 10.0 mi West 8.1 mph - N/A   Clear
5:13 PM 62.6 °F - 26.6 °F 26% 30.04 in 10.0 mi West 4.6 mph - N/A   Clear
5:33 PM 62.6 °F - 26.6 °F 26% 30.04 in 10.0 mi NW 5.8 mph - N/A   Clear
5:53 PM 60.8 °F - 28.4 °F 29% 30.04 in 10.0 mi Calm Calm - N/A   Clear
6:13 PM 60.8 °F - 28.4 °F 29% 30.05 in 10.0 mi WSW 3.5 mph - N/A   Clear
6:33 PM 59.0 °F - 28.4 °F 31% 30.05 in 10.0 mi WSW 6.9 mph - N/A   Clear
6:53 PM 60.8 °F - 28.4 °F 29% 30.05 in 10.0 mi West 3.5 mph - N/A   Clear
7:13 PM 60.8 °F - 26.6 °F 27% 30.05 in 10.0 mi West 5.8 mph - N/A   Clear
7:33 PM 60.8 °F - 26.6 °F 27% 30.07 in 10.0 mi West 3.5 mph - N/A   Clear
7:53 PM 57.2 °F - 26.6 °F 31% 30.07 in 10.0 mi Calm Calm - N/A   Clear
8:13 PM 53.6 °F - 26.6 °F 35% 30.07 in 10.0 mi Calm Calm - N/A   Clear
8:33 PM 48.2 °F - 26.6 °F 43% 30.08 in 10.0 mi Calm Calm - N/A   Clear
8:53 PM 46.4 °F - 28.4 °F 50% 30.08 in 10.0 mi Calm Calm - N/A   Clear
9:13 PM 42.8 °F - 28.4 °F 57% 30.09 in 10.0 mi Calm Calm - N/A   Clear
9:33 PM 42.8 °F - 28.4 °F 57% 30.09 in 10.0 mi Calm Calm - N/A   Clear
9:53 PM 39.2 °F - 26.6 °F 61% 30.10 in 10.0 mi Calm Calm - N/A   Clear
10:13 PM 37.4 °F - 26.6 °F 65% 30.10 in 10.0 mi Calm Calm - N/A   Clear
10:33 PM 37.4 °F - 26.6 °F 65% 30.10 in 10.0 mi Calm Calm - N/A   Clear
10:53 PM 37.4 °F - 26.6 °F 65% 30.10 in 10.0 mi Calm Calm - N/A   Clear
11:13 PM 35.6 °F - 26.6 °F 70% 30.10 in 10.0 mi Calm Calm - N/A   Clear
11:33 PM 35.6 °F - 26.6 °F 70% 30.10 in 10.0 mi Calm Calm - N/A   Clear
11:53 PM 35.6 °F - 26.6 °F 70% 30.09 in 10.0 mi Calm Calm - N/A   Clear